Content
SEND FEEDBACK

Daily
Averages
Monthly
Summary
United States of America

BATAVIA, NEW YORK


Home > North America > United States > New York
Elevation: 277 meters     Latitude: 43 01N     Longitude: 078 11W

WEATHER
 
SELECT A DAY
Number of Records: 220,398;   Date Range: 1/1/95 - 7/29/14
 
SHARE

PRINT THIS DATA

[ ← Previous Day ]
WEATHER ALMANAC - 23 JANUARY, 2013
[ Next Day → ]
[ °F ]   °C
Weather ElementAverageHighLow
Temperature-11.7 °C-9.4 °C (1:54 pm)-15 °C (5:54 am)
Dewpoint-17.6 °C-14 °C (3:02 pm)-20.6 °C (1:54 pm)
Humidity63.3 %79 % (3:02 pm)41 % (1:54 pm)
Barometer1021.7 hPa1024.4 hPa (8:54 am)1019.3 hPa (4:21 pm)
Wind Speed12.7 km/h20.4 km/h (4:54 am)
Weather ElementAverage
Visibility12.4 km
Wind DirectionWSW (257.7 °)

Weather ElementTotal
Precipitation1.27 mm
Heating Degree Days30.6 (Base 18.3)
Averaged from 31 records on 23 January, 2013
WEATHER CONDITIONS BREAKOUT
WIND DIRECTION BREAKOUT
WEATHER BY HOUR - 23 JANUARY, 2013
[ °F ]   °C
Local TimeTemperatureDewpointHumidityBarometerVisibilityWind DirectionWind SpeedGust SpeedPrecipitationEventsConditions
1:54 AM-14.4 °C-20 °C63 %1022.7 hPa16.1 kmWest (280°)18.5 km/hScattered Clouds
2:54 AM-14.4 °C-19.4 °C67 %1023 hPa16.1 kmWest (280°)13 km/hScattered Clouds
3:54 AM-14.4 °C-19.4 °C67 %1023 hPa16.1 kmWest (280°)18.5 km/hScattered Clouds
4:54 AM-14.4 °C-19.4 °C67 %1023 hPa16.1 kmWNW (290°)20.4 km/hScattered Clouds
5:54 AM-15 °C-19.4 °C70 %1023.4 hPa16.1 kmWNW (290°)14.8 km/hScattered Clouds
6:54 AM-15 °C-19.4 °C70 %1023.7 hPa16.1 kmWest (280°)16.7 km/hScattered Clouds
7:54 AM-15 °C-18.9 °C73 %1024 hPa16.1 kmWNW (300°)13 km/hScattered Clouds
8:54 AM-13.9 °C-18.3 °C70 %1024.4 hPa16.1 kmWNW (290°)14.8 km/hMostly Cloudy
9:54 AM-12.2 °C-17.8 °C64 %1024.4 hPa16.1 kmWNW (300°)14.8 km/hMostly Cloudy
10:54 AM-11.7 °C-18.3 °C59 %1024.4 hPa16.1 kmWNW (290°)14.8 km/hMostly Cloudy
11:54 AM-11.1 °C-20 °C49 %1023.4 hPa16.1 kmWest (260°)16.7 km/hMostly Cloudy
12:54 PM-10 °C-19.4 °C47 %1022.4 hPa16.1 kmWest (280°)13 km/hMostly Cloudy
1:54 PM-9.4 °C-20.6 °C41 %1021.7 hPa16.1 kmWNW (290°)14.8 km/hOvercast
2:32 PM-11 °C-17 °C62 %1019.6 hPa3.2 kmWSW (240°)16.7 km/h0 mmSnowLight Snow
2:42 PM-11 °C-17 °C62 %1019.6 hPa3.2 kmWSW (250°)9.3 km/h0 mmSnowLight Snow
2:54 PM-10.6 °C-15 °C71 %1021.7 hPa1.6 kmWSW (240°)9.3 km/h0 mmSnowLight Snow
3:02 PM-11 °C-14 °C79 %1019.6 hPa1.3 kmWest (260°)13 km/h0 mmSnowLight Snow
3:15 PM-11 °C-14 °C79 %1019.6 hPa0.8 kmSSW (200°)7.4 km/h0.25 mmSnowSnow
3:32 PM-11 °C-14 °C79 %1019.6 hPa2.9 kmWSW (250°)7.4 km/h0.25 mmSnowLight Snow
3:37 PM-11 °C-14 °C79 %1019.6 hPa4 kmWest (260°)7.4 km/h0.25 mmSnowLight Snow
3:39 PM-11 °C-14 °C79 %1019.6 hPa8 kmWSW (250°)11.1 km/h0.25 mmSnowLight Snow
3:54 PM-10 °C-15.6 °C64 %1021 hPa12.9 kmWest (260°)13 km/h0.25 mmSnowLight Snow
4:21 PM-11 °C-16 °C67 %1019.3 hPa11.3 kmWest (270°)14.8 km/h0 mmSnowLight Snow
4:54 PM-10 °C-16.7 °C59 %1021 hPa16.1 kmWest (260°)13 km/h0 mmSnowLight Snow
5:54 PM-10.6 °C-17.8 °C56 %1021 hPa16.1 kmWSW (250°)11.1 km/h0 mmOvercast
6:54 PM-10.6 °C-18.3 °C54 %1020.7 hPa16.1 kmCalmMostly Cloudy
7:54 PM-10.6 °C-18.9 °C51 %1020.7 hPa16.1 kmWNW (290°)14.8 km/hOvercast
8:54 PM-10.6 °C-20 °C47 %1020.3 hPa16.1 kmWest (270°)13 km/hOvercast
9:54 PM-10.6 °C-18.9 °C51 %1020.3 hPa16.1 kmWSW (250°)13 km/h0 mmSnowLight Snow
10:54 PM-10.6 °C-18.3 °C54 %1020.3 hPa16.1 kmWest (260°)11.1 km/h0 mmSnowLight Snow
11:54 PM-10.6 °C-16.7 °C62 %1020 hPa11.3 kmSW (220°)5.6 km/h0 mmSnowLight Snow
Hourly data recorded from KBUF, located 0 kilometers away from Batavia, New York







STORIES FROM OUR PARTNERS